This is the latest recevied weather packets stored in our database for station/object OE-11307. If no packets are shown the sender has not sent any weather packets the latest 10 day(s).
| Time | Temp. | Humidity | Pressure | Rain* | Wind** | Luminosity | Snow |
|---|---|---|---|---|---|---|---|
| 1788079287 | 17.78° C | 68% | 853.7 hPa | 0 mm | - | 592 W/m² | - |
| 1788078913 | 17.78° C | 66% | 853.8 hPa | 0 mm | - | 580 W/m² | - |
| 1788078314 | 17.78° C | 68% | 853.8 hPa | 0 mm | - | 554 W/m² | - |
| 1788077486 | 17.22° C | 70% | 853.7 hPa | 0 mm | - | 529 W/m² | - |
| 1788077114 | 16.11° C | 70% | 853.7 hPa | 0 mm | - | 504 W/m² | - |
| 1788076514 | 16.11° C | 76% | 853.7 hPa | 0 mm | - | 473 W/m² | - |
| 1788075687 | 15.56° C | 77% | 853.7 hPa | 0 mm | - | 441 W/m² | - |
| 1788075313 | 15.56° C | 78% | 853.8 hPa | 0 mm | - | 416 W/m² | - |
| 1788074714 | 15° C | 78% | 853.7 hPa | 0 mm | - | 384 W/m² | - |
| 1788073887 | 15° C | 81% | 853.9 hPa | 0 mm | - | 353 W/m² | - |
| 1788073513 | 14.44° C | 83% | 853.9 hPa | 0 mm | - | 328 W/m² | - |
| 1788072913 | 14.44° C | 84% | 854 hPa | 0 mm | - | 284 W/m² | - |
| 1788072087 | 14.44° C | 83% | 853.9 hPa | 0 mm | - | 120 W/m² | - |
| 1788071714 | 13.89° C | 85% | 853.9 hPa | 0 mm | - | 101 W/m² | - |
| 1788071114 | 13.89° C | 83% | 853.9 hPa | 0 mm | - | 88 W/m² | - |
| 1788070287 | 13.33° C | 86% | 853.7 hPa | 0 mm | - | 76 W/m² | - |
| 1788069913 | 13.33° C | 85% | 853.7 hPa | 0 mm | - | 69 W/m² | - |
| 1788069314 | 12.78° C | 85% | 853.4 hPa | 0 mm | - | 50 W/m² | - |
| 1788068487 | 13.33° C | 82% | 853.3 hPa | 0 mm | - | 32 W/m² | - |
| 1788068114 | 13.33° C | 81% | 853.4 hPa | 0 mm | - | 25 W/m² | - |
| 1788067514 | 13.33° C | 82% | 853.4 hPa | 0 mm | - | 19 W/m² | - |
| 1788066687 | 12.78° C | 86% | 853.4 hPa | 0 mm | - | 13 W/m² | - |
| 1788066313 | 12.78° C | 86% | 853.3 hPa | 0 mm | - | 6 W/m² | - |
| 1788065713 | 12.78° C | 87% | 853.3 hPa | 0 mm | - | 0 W/m² | - |
| 1788064886 | 12.78° C | 85% | 853.2 hPa | 0 mm | - | 0 W/m² | - |
* Rain latest hour (hover to see other rain measurements)
** Current wind speed in m/s (hover to see current wind gust speed)